119P/Parker-Hartley (2005)

Japanese version
Home page
Updated on April 23, 2006

---------------------------------------------------------------------

* Profile

* Orbital Elements

The following orbital elements are taken from MPC 52907: 

Epoch 2005 May 30.0 TT = JDT 2453520.5
T 2005 May 24.3372 TT                                   MPC
q   3.044495             (2000.0)            P               Q
n   0.1108292      Peri.  181.4103      +0.4147174      -0.9063080
a   4.292397       Node   244.0939      +0.8357458      +0.4147277
e   0.290724       Incl.    5.1879      +0.3599145      +0.0812824
P   8.89
From 346 observations 1995-2004, mean residual 0".7.

* Finding Charts

* Magnitudes Graph

        m1 = 7.5 + 5 log d + 15.0 log r

---------------------------------------------------------------------

The orbital elements are published at the MPC Ephemerides and Orbital Elements.
The charts are made with StellaNavigator Ver.2.0 for Windows (AstroArts / ASCII).
The magnitudes graphs are made with Comet for Windows.

---------------------------------------------------------------------

Copyright(C) Seiichi Yoshida (comet@aerith.net). All rights reserved.